Find ARGOS

NORAD ID: 25634 Int'l Des: 1999-008 Owner: SMCTV Country: US operational
LEOCIRCULARRETROGRADESSO

リアルタイム位置

3D地球を読み込み中...

ARGOSについて

説明を読み込み中...

次回通過

Passes for default location (London). Set your location on the main map for personalized predictions.

高度履歴

Loading altitude history...

軌道要素

1 25634U 99008A 26105.90869472 .00000005 00000-0 22141-4 0 9994
2 25634 98.5077 74.3542 0009379 215.7312 144.3239 14.19977839405465
Epoch: Apr 15, 2026 • Age: 8 hours

現在のステータス

高度 850.2 km
速度 7.43 km/s
衛星直下点 -78.89°S, 168.61°W
打ち上げ日 Feb 23, 1999
運用期間 27.1 years
タイプ other

技術仕様

分類 Payload
質量 2490.00 kg
乾燥質量 2490.00 kg
総質量 2490.00 kg
長さ 4.00 m
直径 2.00 m
スパン 16.00 m
形状 Box + 2 Pan
製造者 BOSB
バスタイプ P91-1
フェーズステータス In Orbit
所有者/国 SMCTV/US

Most Searched